{"data":{"norad_id":68438,"epoch":"2026-09-19T07:22:54.283872Z","epoch_age_seconds":172155,"freshness":"FRESH","line1":"1 68438U 26067Y   26262.30757273  .00013476  00000+0  58400-3 0  9992","line2":"2 68438  97.4618 219.9046 0005075  80.3766 279.8044 15.22493262 26259","mean_motion":15.22493262,"eccentricity":0.0005075,"inclination_deg":97.4618,"raan_deg":219.9046,"arg_perigee_deg":80.3766,"mean_anomaly_deg":279.8044,"bstar":0.000584,"rev_number":2625,"period_min":94.581699370437,"perigee_km":494.83320820845,"apogee_km":501.81281512029,"semimajor_km":6876.4600116644,"source":"CELESTRAK","updated_at":"2026-09-20T09:00:24.204526Z"}}